Location: ????
(30.2663°N, 31.2484°E)
Time: 03:29:03
(UTC+00:00)

Cosmos 1833 Rocket - Pass Details

Date: 27 September 2022
Orbit: 833 x 839 km, 71.0° (Epoch: 30 November)

Event Time Altitude Azimuth Distance (km) Brightness Sun altitude
Exits shadow 02:38:58 22° 277° (W) 1,751 3.8 -15.3°
Maximum altitude 02:40:15 24° 298° (WNW) 1,673 3.8 -15.0°
Drops below altitude 10° 02:44:44 10° 351° (N) 2,454 5.1 -14.0°
Sets 02:47:40 0° 5° (N) 3,392 6.0 -13.4°
